weather.gov     
National Weather Service

Regional Weather Roundup
NWS Homepage
This page is being discontinued on March 12, 2014.
The same data is available at this site. Please update your bookmarks.
Thank you, and we apologize for the inconvenience.
Please send an email to SR-SRH.Webmaster@noaa.gov with any concerns.


Current Version
Previous Version:    01  02  03  04  05  06  07  08  09  10  11  12  13  14  15  16  17  18  19  20  21  22  23  24  25  26  27  28  29  30  
   31  32  33  34  35  36  37  38  39  40  41  42  43  44  45  46  47  48  49  50  51  52  53  
[Printable]
820
ASCA42 TJSJ 270511
RWRPR
PUERTO RICO/U.S. VIRGIN ISLANDS HOURLY WEATHER ROUNDUP
NATIONAL WEATHER SERVICE SAN JUAN PR
100 AM AST THU NOV 27 2014

PRZ001-004-270600-
PUERTO RICO

CITY           SKY/WX    TMP DP  RH WIND       PRES   REMARKS
SAN JUAN LMM   PTCLDY    77  73  88 CALM      30.00F
CEIBA          PTCLDY    81  72  74 E8        30.03S
$$

PRZ006-007-270600-
U.S. VIRGIN ISLANDS

CITY           SKY/WX    TMP DP  RH WIND       PRES   REMARKS
$$

HOURLY WEATHER ROUNDUP FOR THE NEWS MEDIA

CITY           SKY/WX    TMP DP  RH WIND       PRES   REMARKS
MIAMI          CLOUDY    59  43  55 N6        30.19S
ORLANDO        CLEAR     52  49  89 NW3       30.21S
NEW YORK       FLURRIES  36  32  85 N20G28    29.83R WCI  25
NEWARK         CLOUDY    37  33  85 NW12      29.85R WCI  29
CHICAGO        CLOUDY    27  21  78 NW10      30.17R WCI  17
HARTFORD       LGT RAIN  35  34  96 N13G25    29.60R WCI  26
BOSTON         LGT SNOW  34  31  88 N15G25    29.69R FOG     WCI  24
DALLAS         CLEAR     50  33  52 N9        30.38R
PHILADELPHIA   CLOUDY    38  31  76 W8        29.93R WCI  32




U.S. Dept. of Commerce
NOAA National Weather Service
1325 East West Highway
Silver Spring, MD 20910
E-mail: w-nws.webmaster@noaa.gov
Page last modified: May 16, 2007
NATIONAL WEATHER SERVICE: for Safety, for Work, for Fun - FOR LIFE